Temperature
24 23 23 24 24 24 24 23 23 22 23 23 22 22 22 22 21 21 21 21 21 20 20 20 20 20 19 19 19 18 18 18 17 17 17 16 16 16 16 16 16 16 16 16
24 23 24 24 24 24 24 23 23 22 23 23 22 22 22 22 22 21 21 21 21 21 21 20 20 19 19 19 19 18 18 18 17 17 17 17 16 16 16 16 16 16 16 16
23 24 24 24 23 23 23 23 22 22 23 23 22 22 22 22 22 22 22 22 22 21 21 20 20 19 19 19 19 19 18 18 17 17 17 17 16 16 16 16 16 16 16 16
24 24 24 23 23 23 22 23 23 22 22 22 22 21 22 22 22 23 22 22 22 22 21 20 20 19 19 19 19 19 18 18 17 17 17 17 16 16 16 16 16 16 16 16
23 23 23 23 23 23 23 23 23 23 22 22 22 21 22 23 22 22 23 22 22 22 21 21 20 20 19 19 19 18 18 18 17 17 17 17 16 16 16 16 16 16 16 15
23 24 23 23 23 24 23 23 23 22 22 21 22 22 21 22 23 23 23 23 22 22 21 21 20 20 19 19 18 18 18 18 17 17 17 17 16 16 16 16 16 16 16 16
23 23 23 23 23 23 23 22 21 21 20 21 23 23 22 24 24 24 24 23 22 22 21 21 20 20 19 19 18 18 18 17 17 17 17 17 17 16 16 16 16 16 16 16
22 22 23 23 23 22 23 22 20 20 21 22 23 23 24 25 25 24 24 23 23 22 21 21 20 20 19 19 18 18 18 17 17 17 17 17 17 17 16 16 16 16 16 16
23 22 23 23 23 23 22 22 22 21 22 22 22 23 24 25 25 24 24 23 23 22 21 21 20 20 19 19 19 18 18 18 17 17 17 17 17 17 17 16 16 16 16 16
24 22 23 23 23 23 23 23 22 21 21 21 22 23 23 23 23 24 24 23 23 22 21 21 20 20 19 19 19 18 18 18 18 18 17 17 17 17 17 17 16 16 16 16
24 22 22 22 22 22 23 23 22 22 22 20 21 22 24 24 24 24 24 24 23 22 22 21 20 20 19 19 19 18 18 18 18 18 18 17 17 17 17 17 16 16 16 16
24 23 22 22 23 24 23 23 23 21 21 21 21 21 25 24 24 24 24 24 23 22 22 21 21 20 19 19 19 18 18 18 18 18 18 17 17 17 17 17 17 17 17 17
23 22 21 21 22 23 23 23 23 23 22 22 21 22 25 25 24 24 24 24 23 23 22 21 21 20 20 19 19 19 18 18 18 18 18 17 17 17 17 17 17 17 17 17
23 23 22 21 22 23 23 23 24 23 22 22 22 23 24 24 24 24 24 24 23 23 22 21 21 20 20 19 19 19 18 18 18 18 18 17 17 17 17 17 17 16 17 17
23 23 23 24 24 24 24 24 24 23 23 22 23 23 24 24 24 24 23 24 23 23 22 21 21 20 20 20 19 19 19 18 18 18 18 17 17 17 17 17 17 16 16 16
23 23 23 23 24 24 24 24 24 24 24 24 23 23 25 24 24 24 23 23 23 23 22 21 21 20 20 20 19 19 19 19 18 18 18 18 17 17 17 17 17 17 16 16
23 22 22 22 24 24 23 24 24 24 24 24 23 24 25 24 24 24 23 23 22 22 22 21 21 21 20 20 20 19 19 19 18 18 18 18 17 17 17 17 17 17 16 16
23 22 22 22 22 21 23 25 25 24 24 25 25 25 25 24 24 23 23 22 22 22 21 21 21 21 20 20 20 19 19 19 18 18 18 18 18 17 17 17 17 17 16 16
23 22 22 22 21 22 24 24 25 24 24 25 25 25 24 24 23 23 22 22 22 21 21 21 21 21 20 20 20 20 19 19 18 18 18 18 18 17 17 17 17 16 16 16
23 23 22 21 21 21 23 25 25 24 23 24 25 24 24 24 22 22 22 22 21 21 21 21 20 20 20 20 20 20 19 19 18 18 18 18 18 17 17 17 17 16 16 16
22 22 21 21 21 22 23 24 24 23 23 24 24 24 24 24 23 22 21 21 21 20 20 20 20 20 20 20 20 19 19 19 18 18 18 18 17 17 17 17 16 16 16 16
22 21 21 21 21 21 23 23 23 23 24 24 24 23 23 22 22 21 21 20 20 20 19 19 19 19 19 19 19 19 19 18 18 18 18 17 17 17 17 16 16 16 16 16
23 23 22 22 22 23 23 23 23 23 23 23 23 23 22 22 21 21 20 20 19 19 19 19 19 19 18 18 19 18 18 18 18 18 17 17 17 16 16 16 16 15 15 15
23 24 23 22 22 23 23 23 23 22 22 22 22 22 21 21 21 20 20 19 19 18 18 18 18 18 18 18 18 18 18 17 17 17 17 16 16 16 16 15 15 15 15 15
22 23 23 22 22 22 22 22 22 22 22 21 21 21 21 21 20 20 19 19 18 18 18 18 18 18 18 17 17 17 17 17 17 17 16 16 16 15 15 15 15 15 15 14
22 22 21 21 22 22 21 21 21 21 21 21 21 20 20 20 20 19 19 18 18 17 17 17 17 17 17 17 17 17 17 17 17 16 16 15 15 15 15 15 14 14 14 14
Wind_Speed
5 4 4 3 4 4 4 2 3 3 3 3 4 6 8 8 7 7 7 7 9 9 9 8 7 6 5 5 7 8 6 5 5 3 3 3 3 4 4 5 8 8 8 8
3 4 3 2 2 3 3 2 1 3 3 3 5 7 8 9 10 9 10 10 9 10 10 9 8 6 5 4 6 7 6 6 6 3 3 3 3 4 4 4 6 8 9 9
4 1 1 2 2 3 3 2 1 2 2 4 5 6 9 10 11 10 10 9 10 11 11 11 9 7 5 5 5 6 6 7 6 4 3 4 3 3 3 4 4 5 8 9
2 1 1 2 3 3 3 2 3 4 4 4 6 4 7 10 10 11 10 10 10 10 11 10 9 8 7 6 6 6 6 7 6 5 3 3 3 3 4 3 3 3 7 7
1 1 2 3 2 2 1 2 4 5 5 4 5 4 4 8 10 12 12 11 11 10 11 11 10 9 8 6 6 5 6 6 6 5 5 2 3 3 3 4 4 4 4 4
3 2 1 1 2 3 3 3 5 5 4 5 7 5 4 7 9 11 12 12 12 11 11 11 10 9 8 7 6 5 6 6 5 4 5 3 4 4 4 4 3 3 3 2
5 4 3 2 3 4 5 3 2 3 4 4 4 4 3 5 7 8 10 12 12 12 11 11 11 10 9 9 7 6 7 6 5 5 5 5 5 4 4 3 2 2 3 2
5 5 5 4 4 3 5 5 3 2 2 1 2 2 2 6 6 7 8 10 11 11 11 11 11 10 10 10 9 8 8 7 6 5 5 5 6 3 3 3 3 2 3 3
3 3 6 4 4 4 4 5 5 4 5 3 2 3 4 6 7 8 8 10 12 11 11 11 11 11 11 10 9 8 8 8 7 5 4 5 6 4 4 3 3 3 3 3
3 2 5 5 4 6 5 4 3 2 2 2 2 4 5 8 8 7 8 9 10 11 12 11 10 10 11 10 9 9 8 8 7 6 5 4 5 5 4 3 4 4 4 3
6 3 5 6 5 6 5 5 3 3 3 1 1 1 3 6 7 7 8 9 10 10 11 10 10 10 10 10 9 9 8 8 7 7 6 5 5 5 5 4 4 3 4 3
5 4 5 7 6 5 5 6 5 3 3 2 1 0 2 5 5 5 7 8 10 10 10 10 10 10 9 10 10 10 9 8 7 6 6 6 6 5 5 5 4 4 4 3
3 3 3 4 5 7 7 7 6 5 4 3 2 2 2 5 4 4 5 7 8 10 10 10 10 10 9 9 9 9 9 8 8 7 6 6 6 6 5 5 5 4 4 3
3 6 5 4 2 5 8 8 7 6 4 4 3 2 2 3 3 3 3 6 8 9 9 9 9 9 9 9 9 9 9 8 8 8 7 7 7 6 6 5 5 4 4 4
5 7 7 7 4 4 6 7 8 8 6 5 3 2 1 2 2 4 4 4 7 9 9 9 9 9 9 9 9 9 9 9 9 9 8 7 6 7 6 6 5 4 4 4
6 7 8 8 6 6 7 7 8 8 6 5 4 3 1 1 1 3 4 5 6 7 7 8 9 9 9 10 10 9 9 9 9 9 8 7 6 7 7 6 5 5 4 3
6 7 7 6 6 6 7 7 8 7 6 5 5 2 2 2 2 3 4 4 5 5 6 6 8 8 8 8 9 9 9 9 9 9 8 8 7 7 7 7 6 6 5 4
7 6 4 5 5 7 4 3 4 5 6 5 3 2 2 2 4 4 4 4 4 5 5 5 5 7 7 8 9 9 9 9 9 9 8 8 8 7 7 6 6 6 5 5
7 6 5 4 5 5 4 2 3 4 4 4 4 3 3 4 4 3 4 4 5 5 4 4 5 5 6 6 7 9 9 9 9 8 8 8 8 8 8 7 7 5 5 5
10 8 6 5 4 4 2 3 3 3 3 1 2 3 4 5 3 2 4 5 5 5 4 3 4 4 4 5 6 7 7 8 8 8 8 8 8 8 8 7 6 5 5 5
11 9 9 8 6 4 1 1 3 4 1 1 1 1 2 3 4 5 6 6 6 5 5 5 5 4 3 4 5 5 5 5 6 7 7 8 8 8 7 6 5 5 5 5
8 7 8 8 7 4 2 2 2 1 2 3 3 3 4 6 7 7 7 7 6 6 5 6 6 4 4 3 4 4 3 3 5 6 6 7 7 7 7 7 6 6 6 6
7 6 4 4 2 3 3 1 1 1 2 4 4 4 5 7 8 7 7 7 6 6 5 5 5 5 4 4 4 4 3 4 5 6 6 6 6 5 6 6 6 5 4 4
5 5 5 4 4 3 2 2 3 3 3 3 4 4 5 5 7 7 6 6 6 5 5 5 5 5 4 4 4 4 3 4 6 6 6 5 5 5 5 4 4 4 4 4
3 3 5 5 4 3 2 2 3 3 3 4 4 4 4 5 6 6 6 5 5 5 5 5 4 4 4 4 4 4 3 3 5 5 5 5 4 5 4 4 3 4 3 4
6 5 5 4 4 3 3 4 4 4 3 4 5 5 5 5 6 6 6 6 5 5 5 5 5 5 5 5 4 4 3 3 4 4 4 3 3 4 4 4 3 2 2 3
Wind_Direction
217 233 242 238 246 284 302 242 185 156 171 193 184 173 172 179 185 173 169 181 175 170 162 143 138 133 133 134 127 126 135 120 100 77 76 82 75 68 58 56 47 32 33 43
219 239 266 277 269 271 271 252 167 141 195 203 196 194 187 188 191 190 187 191 181 167 156 148 150 143 151 143 125 131 126 115 101 84 88 90 84 87 84 62 50 41 37 34
226 260 203 254 262 258 234 232 198 214 223 234 215 216 200 199 194 193 191 185 174 169 162 159 157 155 162 148 136 132 127 118 108 102 74 74 68 66 84 80 59 46 50 38
234 285 250 231 240 246 232 184 193 218 229 227 210 228 203 196 191 191 186 184 180 172 163 158 158 162 164 153 142 132 126 119 115 112 99 111 116 100 94 96 98 77 64 53
220 197 244 241 241 239 250 200 222 230 247 264 242 248 207 195 192 190 186 182 177 171 162 161 162 163 156 146 137 135 124 112 112 118 113 96 87 92 92 90 96 94 77 69
226 168 209 262 230 202 203 243 248 240 248 251 231 232 208 195 194 189 183 180 176 173 165 161 159 154 145 136 136 131 122 115 119 127 127 122 106 99 101 100 98 104 101 71
199 189 178 225 236 193 209 228 232 209 213 227 198 210 200 171 173 172 173 175 175 168 164 163 159 156 149 147 149 142 136 139 149 152 146 141 134 134 130 127 120 110 107 95
207 189 181 206 234 227 233 230 258 279 241 191 185 208 135 132 148 150 161 165 166 165 165 165 163 160 159 159 160 157 154 155 163 176 165 156 147 146 136 137 130 114 105 110
237 174 162 189 234 250 245 233 238 275 286 275 182 148 127 136 142 146 159 161 167 168 165 167 164 163 163 163 164 162 162 164 171 179 160 148 143 144 142 149 124 114 110 106
281 195 167 173 226 238 257 275 259 256 280 264 204 189 163 159 156 163 163 163 166 165 168 167 163 164 165 167 168 167 168 167 168 174 164 152 144 143 135 130 121 117 111 102
264 244 175 178 212 227 219 240 254 266 253 276 249 79 132 156 154 172 170 165 166 164 165 163 161 165 164 163 167 171 171 168 170 176 163 154 150 144 135 133 129 130 128 134
231 265 218 202 199 226 243 249 241 253 265 224 251 354 93 137 156 171 166 165 162 160 162 160 158 160 163 167 173 175 174 173 170 172 164 159 151 152 153 151 152 147 139 136
217 243 230 195 198 209 233 241 246 262 273 251 223 173 139 120 138 156 158 157 156 156 164 163 159 163 169 172 175 173 172 171 165 167 165 161 162 167 164 158 153 149 142 144
252 245 240 228 229 207 218 225 232 241 255 259 239 205 153 118 136 146 151 154 153 160 165 166 164 168 170 175 178 176 172 168 163 164 169 172 171 165 162 154 148 154 144 145
242 251 250 257 254 239 226 226 230 237 243 260 275 265 174 139 158 148 152 156 156 161 164 165 167 171 172 175 178 175 169 168 166 165 170 174 167 157 151 145 150 151 142 144
237 262 264 256 245 242 243 228 227 236 242 247 263 278 108 145 126 146 156 149 147 151 158 162 167 172 176 178 177 173 170 170 166 167 170 169 167 152 151 151 154 147 144 144
226 252 269 267 254 255 252 234 220 221 225 234 247 249 141 136 140 145 141 138 141 142 151 164 170 174 178 178 174 174 173 170 169 170 169 169 166 154 157 159 154 152 157 148
235 244 253 263 259 249 236 211 207 217 232 239 240 234 174 149 126 124 136 147 148 142 147 161 168 167 171 173 168 165 163 167 169 168 168 167 163 157 156 154 155 162 159 152
234 244 248 246 248 254 244 192 199 218 230 228 227 204 172 138 124 123 134 134 137 138 144 152 158 157 161 163 160 158 163 167 165 165 168 164 160 157 160 161 164 165 160 161
214 234 240 246 247 246 228 160 179 230 227 213 227 191 181 175 175 156 132 125 120 120 125 129 132 140 146 148 151 154 165 165 167 166 167 162 159 159 164 168 167 162 161 168
205 220 228 239 244 242 273 157 202 226 162 125 213 156 143 133 109 107 107 104 107 109 112 112 106 100 98 119 132 146 156 162 161 155 155 155 158 162 165 164 161 159 165 173
217 215 222 230 232 221 204 216 223 89 65 77 85 90 100 101 102 103 104 107 110 112 112 114 112 106 94 101 119 129 126 135 132 136 140 146 154 160 162 159 163 166 169 179
218 223 227 223 201 151 180 188 122 97 83 66 64 72 88 109 113 113 112 115 117 120 121 114 113 112 105 103 109 125 122 123 127 131 137 141 145 149 152 157 162 163 169 183
233 239 238 219 181 167 178 141 115 100 91 78 78 87 89 102 112 117 118 117 119 115 113 113 117 114 110 107 107 113 125 141 136 138 144 149 152 150 145 145 156 164 179 187
258 242 241 229 176 157 150 121 123 118 111 99 93 92 94 103 110 114 117 117 115 114 114 118 122 118 114 105 101 103 112 128 130 139 144 145 143 144 143 143 153 165 183 182
251 247 235 230 198 201 167 146 135 137 133 120 108 96 89 98 109 108 110 109 109 113 114 111 107 107 105 104 99 94 97 114 123 129 128 130 136 138 138 136 127 109 146 165
Height
1508 1510 1511 1508 1507 1507 1508 1511 1516 1517 1515 1517 1521 1522 1524 1526 1528 1530 1532 1535 1537 1539 1542 1545 1547 1549 1552 1554 1555 1557 1558 1559 1560 1560 1561 1561 1561 1561 1560 1560 1560 1559 1559 1560
1509 1511 1507 1505 1505 1507 1509 1514 1516 1516 1514 1517 1521 1521 1521 1523 1525 1527 1530 1533 1535 1538 1541 1544 1547 1549 1552 1554 1555 1557 1558 1559 1560 1561 1561 1562 1562 1562 1561 1561 1561 1561 1561 1561
1510 1508 1505 1506 1508 1511 1511 1515 1517 1519 1516 1515 1520 1524 1521 1520 1522 1525 1527 1530 1532 1536 1539 1542 1546 1548 1551 1553 1555 1557 1558 1559 1560 1561 1562 1562 1563 1563 1563 1562 1562 1562 1562 1562
1506 1506 1507 1508 1510 1510 1515 1512 1514 1517 1521 1523 1520 1532 1521 1517 1519 1521 1524 1527 1530 1533 1537 1540 1544 1547 1550 1553 1555 1557 1558 1559 1560 1561 1562 1563 1563 1564 1564 1564 1564 1563 1563 1563
1508 1507 1509 1511 1510 1510 1512 1510 1512 1515 1519 1522 1519 1526 1521 1513 1517 1518 1520 1524 1528 1532 1535 1539 1542 1546 1549 1552 1554 1556 1558 1559 1560 1561 1562 1563 1564 1565 1565 1565 1565 1565 1565 1565
1505 1506 1508 1509 1508 1509 1511 1513 1513 1514 1520 1532 1520 1524 1523 1513 1512 1513 1516 1521 1525 1529 1533 1537 1541 1545 1548 1550 1553 1555 1557 1558 1560 1561 1562 1563 1564 1565 1565 1566 1566 1566 1566 1566
1509 1507 1508 1509 1510 1509 1511 1520 1529 1531 1534 1528 1510 1516 1515 1503 1504 1508 1512 1517 1522 1527 1531 1535 1539 1542 1546 1549 1551 1554 1556 1558 1560 1561 1563 1563 1564 1565 1566 1566 1567 1567 1567 1568
1511 1515 1508 1508 1510 1512 1511 1516 1531 1538 1533 1522 1512 1516 1506 1498 1502 1506 1511 1515 1520 1524 1529 1533 1537 1540 1543 1547 1550 1552 1555 1557 1559 1561 1563 1563 1564 1565 1566 1567 1568 1568 1568 1569
1507 1511 1505 1506 1507 1509 1512 1513 1512 1521 1521 1524 1517 1509 1503 1499 1503 1506 1510 1514 1518 1523 1527 1531 1535 1538 1541 1544 1548 1551 1553 1556 1558 1560 1562 1564 1565 1566 1567 1567 1568 1569 1569 1569
1499 1509 1506 1506 1508 1507 1508 1509 1513 1521 1530 1532 1522 1514 1512 1505 1505 1507 1510 1513 1517 1521 1525 1529 1533 1536 1540 1543 1546 1549 1552 1555 1557 1559 1561 1563 1564 1566 1567 1567 1568 1569 1569 1570
1499 1507 1509 1508 1511 1510 1510 1510 1511 1515 1516 1530 1533 1522 1498 1501 1502 1505 1507 1511 1515 1519 1523 1527 1531 1535 1538 1541 1544 1548 1551 1553 1556 1558 1560 1562 1564 1565 1566 1567 1568 1569 1570 1570
1498 1503 1510 1507 1502 1503 1505 1506 1509 1522 1520 1518 1526 1522 1496 1499 1501 1503 1506 1509 1513 1518 1522 1526 1529 1533 1537 1540 1542 1546 1549 1551 1554 1557 1559 1561 1563 1564 1565 1567 1568 1569 1569 1570
1499 1505 1515 1516 1513 1507 1506 1503 1504 1507 1510 1516 1523 1520 1498 1499 1501 1503 1505 1508 1512 1516 1520 1524 1528 1531 1534 1537 1540 1543 1546 1549 1552 1555 1558 1560 1561 1563 1564 1566 1567 1568 1569 1570
1499 1501 1509 1517 1509 1502 1504 1503 1501 1506 1515 1515 1512 1509 1501 1500 1501 1503 1505 1507 1510 1515 1518 1522 1525 1529 1532 1535 1538 1541 1544 1547 1550 1553 1556 1558 1559 1561 1563 1565 1566 1567 1568 1569
1498 1500 1498 1496 1493 1494 1497 1499 1499 1502 1504 1510 1507 1504 1501 1499 1500 1502 1505 1507 1510 1513 1517 1520 1523 1527 1530 1533 1536 1539 1542 1545 1548 1550 1553 1555 1558 1559 1561 1563 1564 1566 1567 1568
1495 1498 1496 1496 1492 1493 1496 1495 1496 1498 1499 1501 1502 1502 1497 1498 1500 1501 1504 1506 1509 1512 1515 1518 1521 1524 1527 1530 1533 1536 1539 1542 1545 1548 1550 1553 1555 1557 1559 1561 1563 1564 1566 1567
1494 1498 1502 1502 1493 1495 1501 1493 1493 1495 1494 1497 1502 1500 1496 1498 1499 1501 1504 1506 1509 1511 1514 1517 1519 1522 1525 1528 1531 1534 1537 1540 1543 1545 1548 1550 1553 1555 1557 1559 1560 1562 1564 1565
1492 1496 1499 1501 1502 1513 1496 1484 1486 1490 1491 1491 1493 1494 1495 1497 1499 1501 1503 1506 1508 1511 1513 1515 1518 1520 1523 1526 1529 1531 1534 1537 1540 1543 1545 1548 1550 1552 1554 1556 1558 1560 1562 1563
1488 1494 1499 1502 1507 1503 1491 1485 1486 1490 1492 1489 1490 1492 1494 1496 1499 1502 1503 1505 1507 1509 1512 1514 1516 1519 1521 1524 1527 1530 1532 1535 1538 1540 1542 1545 1547 1549 1552 1554 1555 1557 1559 1561
1486 1488 1496 1500 1509 1510 1493 1484 1485 1489 1495 1489 1489 1491 1493 1495 1500 1503 1503 1504 1506 1508 1510 1513 1515 1517 1520 1522 1525 1528 1530 1533 1535 1537 1540 1542 1545 1547 1549 1551 1553 1555 1557 1558
1488 1491 1495 1499 1503 1497 1487 1484 1486 1499 1497 1489 1489 1490 1492 1494 1498 1501 1502 1504 1506 1507 1510 1512 1514 1516 1518 1520 1523 1525 1528 1530 1532 1535 1537 1540 1542 1544 1546 1548 1550 1552 1554 1556
1485 1490 1492 1494 1501 1501 1485 1485 1488 1491 1488 1489 1489 1491 1493 1495 1498 1500 1502 1504 1506 1507 1509 1511 1513 1515 1517 1519 1522 1523 1526 1528 1530 1532 1535 1537 1539 1541 1543 1545 1547 1549 1551 1553
1478 1480 1482 1485 1489 1484 1484 1485 1487 1487 1489 1490 1491 1492 1494 1496 1498 1501 1503 1504 1506 1508 1509 1511 1513 1515 1516 1518 1520 1522 1524 1526 1528 1530 1532 1534 1537 1539 1541 1542 1544 1546 1548 1549
1473 1473 1476 1479 1481 1482 1484 1485 1486 1488 1489 1491 1492 1493 1494 1496 1498 1501 1503 1505 1506 1508 1509 1511 1512 1514 1516 1517 1519 1521 1523 1524 1526 1527 1530 1532 1534 1536 1538 1540 1541 1543 1545 1546
1473 1473 1475 1478 1479 1481 1483 1484 1486 1488 1490 1492 1493 1494 1495 1496 1499 1501 1503 1504 1506 1507 1509 1511 1512 1513 1515 1517 1518 1519 1521 1522 1524 1526 1528 1530 1532 1534 1535 1537 1538 1540 1542 1543
1473 1474 1476 1478 1478 1480 1483 1484 1486 1488 1490 1492 1493 1495 1496 1497 1499 1501 1503 1504 1506 1507 1508 1510 1512 1513 1514 1516 1517 1518 1520 1521 1522 1524 1526 1528 1530 1531 1533 1534 1536 1537 1539 1540